Russell, KS

9:05 PM CST on January 20, 2017 (GMT -0600)
Russell Municipal

Weather History for KRSL - March, 2013

Change the Weather History Date:

Saturday, March 16, 2013

  Actual Average Record
Temperature  
Mean Temperature 41 °F -  
Max Temperature 51 °F 53 °F 90 °F (2015)
Min Temperature 30 °F 30 °F 8 °F (1960)
Degree Days  
Heating Degree Days 24    
Moisture  
Dew Point 30 °F    
Average Humidity 69    
Maximum Humidity 86    
Minimum Humidity 53    
Precipitation  
Precipitation 0.00 in - - ()
Sea Level Pressure  
Sea Level Pressure 29.98 in    
Wind  
Wind Speed 18 mph (NNE)    
Max Wind Speed 24 mph    
Max Gust Speed 40 mph    
Visibility 10 miles    
Events      
Averages and records for this station are not official NWS values.
T = Trace of Precipitation, MM = Missing Value Source: NWS Daily Summary

Daily Weather History Graph

Daily Weather History Graph

Search for Another Location

Airport or City:

Trip Planner

Search our weather history database for the weather conditions in past years. The results will help you decide how hot, cold, wet, or windy it might be!

Date:

Astronomy

Mar. 16, 2013 Rise Set
Actual Time 7:44 AM CDT 7:43 PM CDT
Civil Twilight 7:17 AM CDT 8:10 PM CDT
Nautical Twilight 6:47 AM CDT 8:41 PM CDT
Astronomical Twilight 6:15 AM CDT 9:12 PM CDT
Moon 10:18 AM CDT (3/16) No Moon Set
Length of Visible Light 12h 52m
Length of Day
11h 59m
Waxing Crescent, 23% of the Moon is Illuminated
Mar 16
Waxing Crescent
Mar 19
First Quarter
Mar 27
Full
Apr 2
Last Quarter
Apr 10
New

Hourly Weather History & Observations

Time (CDT) Temp. Windchill Dew Point Humidity Pressure Visibility Wind Dir Wind Speed Gust Speed Precip Events Conditions
12:53 AM 52.0 °F - 43.0 °F 71% 29.76 in 10.0 mi NE 16.1 mph - N/A   Clear
1:53 AM 48.9 °F - 43.0 °F 80% 29.77 in 10.0 mi NNE 16.1 mph - N/A   Clear
2:53 AM 48.0 °F - 42.1 °F 80% 29.79 in 10.0 mi NNE 20.7 mph 27.6 mph N/A   Clear
3:53 AM 48.0 °F - 39.9 °F 74% 29.81 in 10.0 mi NNE 17.3 mph 26.5 mph N/A   Clear
4:53 AM 46.9 °F - 36.0 °F 66% 29.85 in 10.0 mi NNE 20.7 mph 29.9 mph N/A   Clear
5:53 AM 42.1 °F 32.3 °F 32.0 °F 67% 29.89 in 10.0 mi NNE 24.2 mph 40.3 mph N/A   Clear
6:53 AM 39.9 °F 30.8 °F 33.1 °F 77% 29.94 in 10.0 mi NNE 18.4 mph 24.2 mph N/A   Clear
7:53 AM 37.0 °F 26.4 °F 30.0 °F 76% 29.98 in 10.0 mi NNE 20.7 mph - N/A   Clear
8:53 AM 36.0 °F 24.4 °F 30.0 °F 79% 29.99 in 10.0 mi NNE 23.0 mph 27.6 mph N/A   Clear
9:53 AM 37.0 °F 27.0 °F 28.0 °F 70% 30.01 in 10.0 mi NNE 18.4 mph 27.6 mph N/A   Clear
10:53 AM 37.9 °F 27.6 °F 27.0 °F 65% 30.04 in 10.0 mi NNE 20.7 mph - N/A   Clear
11:53 AM 39.9 °F 30.0 °F 27.0 °F 60% 30.04 in 10.0 mi NNE 21.9 mph 27.6 mph N/A   Clear
12:53 PM 41.0 °F 31.9 °F 27.0 °F 57% 30.05 in 10.0 mi NE 19.6 mph 26.5 mph N/A   Clear
1:53 PM 42.1 °F 33.6 °F 26.1 °F 53% 30.04 in 10.0 mi NE 18.4 mph 26.5 mph N/A   Clear
2:53 PM 41.0 °F 32.8 °F 26.1 °F 55% 30.03 in 10.0 mi NNE 16.1 mph 23.0 mph N/A   Clear
3:53 PM 41.0 °F 33.1 °F 26.1 °F 55% 30.01 in 10.0 mi NNE 15.0 mph 25.3 mph N/A   Clear
4:53 PM 39.9 °F 31.1 °F 26.1 °F 58% 30.01 in 10.0 mi NNE 17.3 mph 21.9 mph N/A   Clear
5:53 PM 39.0 °F 31.0 °F 26.1 °F 60% 30.02 in 10.0 mi NNE 13.8 mph - N/A   Clear
6:53 PM 37.0 °F 27.7 °F 26.1 °F 65% 30.03 in 10.0 mi NNE 16.1 mph 21.9 mph N/A   Clear
7:53 PM 36.0 °F 27.5 °F 25.0 °F 64% 30.06 in 10.0 mi NNE 12.7 mph 24.2 mph N/A   Clear
8:53 PM 33.1 °F 23.0 °F 25.0 °F 72% 30.07 in 10.0 mi NNE 15.0 mph 24.2 mph N/A   Partly Cloudy
9:53 PM 32.0 °F 20.1 °F 25.0 °F 75% 30.07 in 10.0 mi NNE 19.6 mph 26.5 mph N/A   Overcast
10:53 PM 30.9 °F 19.1 °F 25.0 °F 79% 30.06 in 10.0 mi NE 18.4 mph - N/A   Mostly Cloudy
11:36 PM 30.2 °F 18.9 °F 26.6 °F 86% 30.01 in 10.0 mi NE 16.1 mph - N/A   Overcast
11:53 PM 30.0 °F 19.1 °F 26.1 °F 85% 30.06 in 10.0 mi NE 15.0 mph - N/A   Overcast